Location: Bastelaar
(51.0950°N, 3.8602°E)
Time: 07:15:21
(UTC+00:00)

Cosmos 1400 Rocket - Pass Details

Date: 18 November 2025
Orbit: 476 x 513 km, 81.1° (Epoch: 12 December)

Event Time Altitude Azimuth Distance (km) Brightness Sun altitude
Rises 18:39:18 0° 210° (SSW) 2,619 6.7 -25.8°
Reaches altitude 10° 18:41:32 10° 218° (SW) 1,734 5.8 -26.2°
Maximum altitude 18:45:08 39° 288° (WNW) 772 3.9 -26.7°
Enters shadow 18:45:12 39° 291° (WNW) 773 3.9 -26.7°
